Tracking 31027 objects as of 19-Jul-2025
HD Live streaming from Space Station
objects crossing your sky now

MINOTAUR 4 DEB

Track MINOTAUR 4 DEB now!
10-day predictions


NORAD ID: 52037
Int'l Code: 2020-046AB
Perigee: 557.8 km
Apogee: 570.6 km
Inclination: 54.0 °
Period: 95.8 minutes
Semi major axis: 6935 km
RCS: Unknown
Launch date: July 15, 2020
Source: United States (US)
Launch site: WALLOPS ISLAND (WLPIS)

Note: This is SATELLITE DEBRIS
Your satellite tracking list
STARLINK-1243
Track 1 satellite(s)




NASA's NSSDC Master Catalog

Two Line Element Set (TLE):
1 52037U 20046AB  25199.53470331  .00000676  00000-0  69462-4 0  9991
2 52037  53.9793 261.7241 0009237 148.9789 211.1758 15.03199504191671
Source of the keplerian elements: AFSPC